Orbital Elements at Epoch 2459200.5 (2020-Dec-17.0) TDB
Reference: JPL 18 (heliocentric ecliptic J2000)
Element | Value | Uncertainty (1-sigma) | Units |
e | .003604760990149017 | 5.7341e-08 | |
a | 3.10436582555073 | 4.1487e-08 | au |
q | 3.093175328723633 | 2.0708e-07 | au |
i | 9.179756446229714 | 4.2872e-06 | deg |
node | 241.04920512278 | 5.3787e-05 | deg |
peri | 191.5808043217399 | 0.0013344 | deg |
M | 288.2262510106216 | 0.0013353 | deg |
tp | 2459598.809714242142 (2022-Jan-19.30971424) | 0.0074129 | TDB |
period | 1997.826491526742 5.47 | 4.0049e-05 1.096e-07 | d yr |
n | .1801958285801324 | 3.6122e-09 | deg/d |
Q | 3.115556322377827 | 4.1636e-08 | au |
|
| | Orbit Determination Parameters
Additional Information
|